[[{"header":{"parameterUnit":"m.s-1","parameterCategory":1,"la1":30.2991,"la2":30.254,"lo1":-89.0895,"lo2":-89.0444,"dy":0.0017,"dx":0.0017,"nx":28,"ny":28,"refTime":"2024-08-06T21:00:00:Z","depth":0,"parameterNumber":2,"parameterNumberName":"U-component_of_WINDS"},"data":[0,0,0,0,0,0,0,0,0,0,0,0,0,0,0,0,0,0,0,0,0,0,0,0,0,0,0,0,0,0,0,0,0,0,0,0,0,0,0,0,0,0,0,0,0,0,0,0,0,0,0,0,0,0,0,0,0,0,3.9132,3.9132,0,3.9207,3.9208,3.9209,3.9104,3.91,3.9096,3.9093,3.9173,3.9179,3.9184,0,0,0,0,0,0,0,0,0,0,0,0,0,3.8901,3.8906,3.9131,3.9132,3.9133,3.9207,3.9208,3.9209,3.9105,3.91,3.9095,3.9091,3.9171,3.9178,3.9185,0,0,0,0,0,0,0,0,0,0,0,0,0,3.8991,3.8907,3.9131,3.909,3.9087,3.9207,3.9208,3.9209,3.9106,3.91,3.9094,3.9089,3.9169,3.9177,3.9186,3.935,0,0,3.9212,3.9215,0,0,0,0,0,0,0,0,3.8986,3.9,3.9095,3.9093,3.909,3.914,3.9156,3.9257,3.9107,3.9099,3.9093,3.9086,3.9167,3.9175,3.9202,3.9354,3.9357,3.9212,3.9217,3.9221,3.9223,0,0,0,0,0,0,0,3.898,3.8996,3.9161,3.9097,3.9094,3.9069,3.9076,3.9174,3.9164,3.9099,3.9092,3.9102,3.9165,3.9194,3.9203,3.9359,3.9212,3.922,3.9225,3.9228,3.9651,3.9657,0,0,0,0,0,0,3.8978,3.8992,3.9159,3.9164,3.9023,3.9078,3.9085,3.913,3.9162,3.9162,3.9106,3.9097,3.9182,3.9193,3.9205,3.9402,3.9221,3.9229,3.9234,3.9645,3.9653,3.9659,0,0,0,0,0,0,3.8974,3.8994,3.9156,3.9076,3.9094,3.9088,3.9139,3.9134,3.9163,3.9168,3.9166,3.9138,3.9178,3.9194,3.9315,3.9403,3.9233,3.924,3.9638,3.9648,3.9656,3.9794,0,0,0,0,0,0,3.8968,3.8993,3.9055,3.9078,3.9099,3.9264,3.9144,3.914,3.9178,3.9166,3.9197,3.9197,3.9175,3.9303,3.9324,3.9411,3.9247,3.963,3.9642,3.9653,3.9782,3.9807,3.9829,0,0,0,0,0,3.896,3.9091,3.9058,3.9079,3.9176,3.9269,3.9281,3.9253,3.9185,3.9248,3.9251,3.9196,3.939,3.9317,3.9339,3.943,3.9624,3.9639,3.9652,3.9772,3.9802,3.9828,0,0,0,0,0,0,3.9079,3.9093,3.9057,3.9199,3.9234,3.9251,3.9329,3.9286,3.9341,3.9327,3.929,3.9298,3.9429,3.9441,3.9359,3.9592,3.9496,3.9515,3.9579,3.9609,3.9632,3.9627,3.9254,0,0,0,0,0,3.9122,3.9196,3.9204,3.9329,3.9348,3.9336,3.9375,3.935,3.9385,3.9399,3.9411,3.9447,3.9516,3.9563,3.9626,3.9783,3.9789,3.9857,3.988,3.99,3.9917,4.0003,4.0034,3.9705,3.9705,3.9705,0,0,3.9212,3.9228,3.9277,3.9353,3.9377,3.9456,3.9349,3.9436,3.9494,3.9413,3.9528,3.9539,3.9577,3.9717,3.978,3.9732,4.0009,3.9917,3.9933,3.994,4.002,4.0051,4.0079,3.9715,3.9713,3.9711,0,0,3.9415,3.9434,3.9541,3.9567,3.9604,3.9595,3.9621,3.9645,3.9649,3.9764,3.9705,3.9774,3.9893,3.9924,3.9955,4.0171,4.0124,4.0193,4.0316,4.04,4.0426,4.0449,4.0528,4.0557,4.021,4.021,4.0211,0,3.9522,3.9637,3.9602,3.9694,3.973,3.9658,3.9768,3.9795,3.9851,3.9879,3.9824,3.9973,3.9994,4.0141,4.0194,4.0221,4.0251,4.019,4.0425,4.0447,4.0468,4.0543,4.0573,4.0219,4.0218,4.0217,4.0216,0,3.9767,3.9848,3.993,3.9986,4.0031,4.0131,4.0113,4.0163,4.0135,4.0132,4.0252,4.0274,4.0342,4.0375,4.0348,4.052,4.0489,4.043,4.0333,4.0508,4.0579,4.0607,4.0231,4.0228,4.0225,4.0223,0,0,4.0049,4.0084,4.0115,4.014,4.0176,4.0239,4.0336,4.0402,4.0447,4.0488,4.057,4.0673,4.062,4.0655,4.0631,4.0705,4.0877,4.0637,4.0637,4.0683,4.107,4.1116,4.1149,4.0845,4.085,4.0855,4.1068,0,4.0254,4.0421,4.0393,4.0557,4.0632,4.0565,4.0651,4.0683,4.0684,4.0749,4.0749,4.0824,4.0746,4.0767,4.0837,4.0841,4.0955,4.0825,4.0923,4.0927,4.0918,4.1185,4.1233,4.1433,4.1095,4.1099,4.1102,0,4.0515,4.0566,4.0737,4.0762,4.0792,4.0869,4.0928,4.099,4.1026,4.1021,4.1062,4.1024,4.1123,4.1024,4.1161,4.1074,4.1112,4.1121,4.1128,4.1137,4.1027,4.1204,4.1496,4.1527,4.1145,4.1141,4.1138,0,4.0706,4.0817,4.0934,4.0957,4.0989,4.1045,4.1061,4.1091,4.1133,4.1184,4.1211,4.1274,4.1309,4.136,4.1341,4.127,4.1483,4.1381,4.1484,4.1485,4.1533,4.1531,4.1838,4.1555,4.1554,4.1554,4.1553,0,4.0939,4.1047,4.102,4.1093,4.1212,4.1179,4.1298,4.1306,4.1334,4.1408,4.1354,4.1425,4.1394,4.1464,4.145,4.1567,4.1583,4.1583,4.1579,4.1589,4.159,4.1615,4.1602,4.1562,4.156,4.1559,4.1557,0,4.1173,4.1159,4.1283,4.1303,4.131,4.1398,4.1415,4.1484,4.148,4.1574,4.1595,4.159,4.1668,4.1654,4.1741,4.1732,4.1879,4.1856,4.1867,4.1863,4.1967,4.1958,4.2302,4.2347,4.2034,4.2037,4.2039,0,4.1323,4.1405,4.1433,4.1478,4.1499,4.1572,4.1614,4.1585,4.1632,4.1679,4.1743,4.1816,4.1874,4.2004,4.2009,4.2076,4.2055,4.2171,4.2065,4.2074,4.206,4.2056,4.2065,4.2193,4.2197,4.22,4.2202,0,4.1593,4.1582,4.1644,4.1705,4.1757,4.1804,4.1845,4.1886,4.186,4.1916,4.1995,4.204,4.2129,4.2204,4.2267,4.2285,4.2241,4.2235,4.2263,4.2276,4.228,4.2281,4.1927,4.2228,4.2225,4.2223,4.2222,4.2221,4.1791,4.1861,4.1892,4.1964,4.1992,4.2032,4.2098,4.2103,4.2168,4.2238,4.2217,4.2308,4.2343,4.2422,4.2447,4.2519,4.2477,4.2516,4.2527,4.2537,4.2551,4.2266,4.2531,4.253,4.2529,4.2528,4.2528,0,4.2059,4.2076,4.2142,4.2202,4.2259,4.2211,4.2254,4.2306,4.2387,4.2422,4.248,4.2573,4.2645,4.2656,4.2725,4.2781,4.2763,4.2801,4.2797,4.2803,4.2584,4.2554,4.2814,4.2814,4.2814,4.2814,4.2814,4.2814,4.2206,4.2322,4.2315,4.2446,4.2462,4.255,4.2579,4.2617,4.2646,4.2751,4.2811,4.2817,4.2843,4.2914,4.2979,4.2981,4.301,4.3056,4.305,4.2846,4.2818,4.2791,4.2762,4.3062,4.3062,4.3263,4.3264,4.3266]},{"header":{"parameterUnit":"m.s-1","parameterCategory":1,"la1":30.2991,"la2":30.254,"lo1":-89.0895,"lo2":-89.0444,"dy":0.0017,"dx":0.0017,"nx":28,"ny":28,"refTime":"2024-08-06T21:00:00:Z","depth":0,"parameterNumber":3,"parameterNumberName":"V-component_of_WINDS"},"data":[0,0,0,0,0,0,0,0,0,0,0,0,0,0,0,0,0,0,0,0,0,0,0,0,0,0,0,0,0,0,0,0,0,0,0,0,0,0,0,0,0,0,0,0,0,0,0,0,0,0,0,0,0,0,0,0,0,0,-2.0489,-2.049,0,-2.0607,-2.0608,-2.061,-2.0626,-2.0625,-2.0624,-2.0623,-2.0744,-2.0748,-2.0752,0,0,0,0,0,0,0,0,0,0,0,0,0,-2.0278,-2.0282,-2.0489,-2.049,-2.0492,-2.0607,-2.0608,-2.061,-2.0626,-2.0625,-2.0623,-2.0622,-2.0742,-2.0747,-2.0753,0,0,0,0,0,0,0,0,0,0,0,0,0,-2.038,-2.0283,-2.0489,-2.0514,-2.0517,-2.0606,-2.0608,-2.061,-2.0626,-2.0625,-2.0623,-2.0622,-2.0741,-2.0747,-2.0753,-2.0826,0,0,-2.0773,-2.0775,0,0,0,0,0,0,0,0,-2.0375,-2.0388,-2.0509,-2.0512,-2.0516,-2.06,-2.0579,-2.0683,-2.0627,-2.0585,-2.0623,-2.0621,-2.0697,-2.0707,-2.0733,-2.0831,-2.0837,-2.0773,-2.0777,-2.078,-2.0782,0,0,0,0,0,0,0,-2.0368,-2.0383,-2.0536,-2.051,-2.0515,-2.0519,-2.0532,-2.0598,-2.0649,-2.0588,-2.059,-2.0604,-2.0699,-2.0727,-2.0736,-2.0838,-2.0773,-2.0779,-2.0783,-2.0785,-2.1003,-2.1005,0,0,0,0,0,0,-2.0356,-2.0377,-2.0532,-2.0539,-2.044,-2.0525,-2.0539,-2.0575,-2.0648,-2.0658,-2.0605,-2.0604,-2.0717,-2.0728,-2.074,-2.083,-2.078,-2.0786,-2.0789,-2.1001,-2.1004,-2.1006,0,0,0,0,0,0,-2.0351,-2.0369,-2.0527,-2.0459,-2.0479,-2.053,-2.057,-2.0578,-2.0606,-2.0661,-2.067,-2.0624,-2.0716,-2.0731,-2.0805,-2.0835,-2.0789,-2.0795,-2.0999,-2.1002,-2.1005,-2.1011,0,0,0,0,0,0,-2.0345,-2.0368,-2.0396,-2.0459,-2.0483,-2.0589,-2.0572,-2.0581,-2.0617,-2.0616,-2.0681,-2.069,-2.0716,-2.0795,-2.0811,-2.0843,-2.0799,-2.0996,-2.1,-2.1004,-2.1008,-2.1014,-2.1019,0,0,0,0,0,-2.0338,-2.0393,-2.0397,-2.0415,-2.0519,-2.0591,-2.0604,-2.0633,-2.0619,-2.0648,-2.0683,-2.0688,-2.0829,-2.0802,-2.082,-2.0855,-2.0995,-2.0999,-2.1003,-2.1006,-2.1013,-2.1018,0,0,0,0,0,0,-2.0331,-2.0401,-2.0407,-2.0484,-2.0531,-2.0593,-2.063,-2.0639,-2.0691,-2.0689,-2.0722,-2.0736,-2.0808,-2.0839,-2.0808,-2.0929,-2.0911,-2.0919,-2.0906,-2.0913,-2.0918,-2.0909,-2.0805,0,0,0,0,0,-2.0339,-2.0392,-2.045,-2.0513,-2.0536,-2.0579,-2.0612,-2.063,-2.068,-2.07,-2.0741,-2.079,-2.0845,-2.0881,-2.0935,-2.1013,-2.1027,-2.1046,-2.1051,-2.1054,-2.1061,-2.1105,-2.1114,-2.102,-2.102,-2.102,0,0,-2.0355,-2.04,-2.0431,-2.0513,-2.0551,-2.0605,-2.0596,-2.0653,-2.0694,-2.0709,-2.0781,-2.0812,-2.0869,-2.0945,-2.0981,-2.0973,-2.109,-2.106,-2.1063,-2.1068,-2.1111,-2.112,-2.1127,-2.1023,-2.1023,-2.1022,0,0,-2.0413,-2.0452,-2.0508,-2.0547,-2.0606,-2.0634,-2.0648,-2.0709,-2.0731,-2.0803,-2.0816,-2.0865,-2.0959,-2.0999,-2.1032,-2.1105,-2.1112,-2.1122,-2.1148,-2.1191,-2.1198,-2.1205,-2.1232,-2.1241,-2.1128,-2.1128,-2.1128,0,-2.0425,-2.0507,-2.0536,-2.0594,-2.0629,-2.0645,-2.0703,-2.0739,-2.0813,-2.0837,-2.0827,-2.0947,-2.0986,-2.1072,-2.109,-2.1116,-2.1133,-2.1115,-2.1195,-2.1202,-2.1209,-2.1234,-2.1244,-2.1129,-2.1129,-2.1129,-2.1129,0,-2.052,-2.0577,-2.0616,-2.0686,-2.0726,-2.0783,-2.0821,-2.0858,-2.0873,-2.0902,-2.0976,-2.1024,-2.1088,-2.111,-2.1125,-2.1198,-2.1192,-2.1188,-2.117,-2.1218,-2.1243,-2.1253,-2.113,-2.113,-2.113,-2.113,0,0,-2.0577,-2.0663,-2.0676,-2.0709,-2.0775,-2.082,-2.0878,-2.0941,-2.0972,-2.1022,-2.1072,-2.1152,-2.1149,-2.1186,-2.1206,-2.1243,-2.1299,-2.1235,-2.1237,-2.1246,-2.1383,-2.1386,-2.1397,-2.1304,-2.1306,-2.1307,-2.1379,0,-2.0642,-2.0746,-2.0774,-2.0862,-2.0915,-2.0931,-2.0982,-2.1028,-2.1058,-2.1107,-2.1139,-2.1196,-2.1188,-2.121,-2.1248,-2.1284,-2.1327,-2.1279,-2.1351,-2.1353,-2.1336,-2.1409,-2.1412,-2.1477,-2.1388,-2.139,-2.1391,0,-2.0732,-2.0784,-2.0877,-2.0937,-2.096,-2.1005,-2.1065,-2.1112,-2.1166,-2.1184,-2.1226,-2.1242,-2.1304,-2.1283,-2.1369,-2.1335,-2.1367,-2.1389,-2.1392,-2.14,-2.1375,-2.1419,-2.1499,-2.1509,-2.1407,-2.1405,-2.1404,0,-2.0764,-2.0857,-2.0925,-2.0953,-2.1024,-2.1055,-2.1087,-2.1138,-2.1174,-2.1227,-2.1251,-2.131,-2.1342,-2.1388,-2.142,-2.1401,-2.1503,-2.1484,-2.1521,-2.152,-2.1541,-2.1539,-2.1627,-2.1561,-2.1561,-2.1561,-2.156,0,-2.0834,-2.089,-2.0941,-2.0983,-2.1047,-2.1079,-2.1141,-2.1173,-2.1219,-2.1268,-2.1286,-2.1331,-2.137,-2.1421,-2.1446,-2.1514,-2.1528,-2.1545,-2.1551,-2.1544,-2.1542,-2.1565,-2.1561,-2.1563,-2.1563,-2.1562,-2.1562,0,-2.088,-2.0916,-2.0992,-2.1053,-2.107,-2.1115,-2.1168,-2.1209,-2.1239,-2.1301,-2.1317,-2.1364,-2.1425,-2.1461,-2.1538,-2.1555,-2.163,-2.1634,-2.1612,-2.1615,-2.1649,-2.1645,-2.1754,-2.177,-2.1693,-2.1694,-2.1695,0,-2.0922,-2.0966,-2.1033,-2.1066,-2.1098,-2.1152,-2.1189,-2.1223,-2.126,-2.1325,-2.1359,-2.1421,-2.1472,-2.1568,-2.161,-2.1669,-2.1675,-2.1709,-2.1684,-2.1675,-2.1676,-2.1673,-2.1677,-2.1713,-2.1714,-2.1714,-2.1715,0,-2.0994,-2.101,-2.1062,-2.1121,-2.1164,-2.1212,-2.126,-2.1287,-2.1329,-2.137,-2.1433,-2.1472,-2.1551,-2.1613,-2.1675,-2.1708,-2.1719,-2.1722,-2.1734,-2.1727,-2.1712,-2.1721,-2.1624,-2.172,-2.1719,-2.1719,-2.1719,-2.1718,-2.104,-2.108,-2.1133,-2.1191,-2.123,-2.1275,-2.1317,-2.1352,-2.1405,-2.1471,-2.1488,-2.1553,-2.1606,-2.1691,-2.1726,-2.1778,-2.1772,-2.1789,-2.1793,-2.1797,-2.1798,-2.1704,-2.1789,-2.1789,-2.1789,-2.1789,-2.1789,0,-2.1112,-2.1147,-2.12,-2.1267,-2.1312,-2.1318,-2.1371,-2.1409,-2.1467,-2.1515,-2.1565,-2.1637,-2.1697,-2.1743,-2.1805,-2.1838,-2.1844,-2.1853,-2.1851,-2.1858,-2.1799,-2.1783,-2.1846,-2.1846,-2.1846,-2.1846,-2.1846,-2.1846,-2.1155,-2.1223,-2.1245,-2.1333,-2.1368,-2.1432,-2.1462,-2.1504,-2.1542,-2.1622,-2.1672,-2.1701,-2.1749,-2.1814,-2.187,-2.1882,-2.1904,-2.1911,-2.1924,-2.1868,-2.1862,-2.1856,-2.1841,-2.1916,-2.1916,-2.1979,-2.198,-2.198]}]]